EW2281 Weather Reports


time (UTC)temp
C
wind
direction
speed
KPH
gust
KPH
rain 1hr
cm
rain 24hr
cm
rain mn
cm
humidity
%
barometer
mb
20260504042033 5 296 0.0 0.0 0.00 0.00 0.00 74 968.5
20260504041312 5 296 0.0 0.0 0.00 0.00 0.00 74 968.4
20260504040812 5 295 0.0 0.0 0.00 0.00 0.00 75 968.5
20260504040312 5 296 0.0 0.0 0.00 0.00 0.00 75 968.5
20260504035810 5 296 0.0 0.0 0.00 0.00 0.00 76 968.4
20260504035309 5 295 0.0 0.0 0.00 0.00 0.00 76 968.4
20260504034807 5 296 0.0 0.0 0.00 0.00 0.00 76 968.3
20260504034304 5 296 0.0 0.0 0.00 0.00 0.00 77 968.3
20260504033804 5 295 0.0 0.0 0.00 0.00 0.00 77 968.4
20260504033304 5 296 0.0 0.0 0.00 0.00 0.00 77 968.4
20260504032803 5 296 0.0 0.0 0.00 0.00 0.00 77 968.4
20260504032259 5 296 0.0 0.0 0.00 0.00 0.00 75 968.4
20260504031800 5 295 0.0 0.0 0.00 0.00 0.00 76 968.3
20260504031301 5 296 0.0 0.0 0.00 0.00 0.00 75 968.3
20260504030800 6 296 0.0 0.0 0.00 0.00 0.00 75 968.3
20260504030258 6 296 0.0 0.0 0.00 0.00 0.00 75 968.3
20260504025758 6 296 0.0 0.0 0.00 0.00 0.00 75 968.3
20260504025256 6 295 0.0 0.0 0.00 0.00 0.00 73 968.4
20260504025019 6 296 0.0 0.0 0.00 0.00 0.00 72 968.4
20260504024250 6 296 0.0 0.0 0.00 0.00 0.00 72 968.4
20260504023744 6 296 0.0 0.0 0.00 0.00 0.00 72 968.4
20260504023238 6 296 0.0 0.0 0.00 0.00 0.00 72 968.4
20260504022732 6 296 0.0 0.0 0.00 0.00 0.00 72 968.5
20260504022226 6 296 0.0 0.0 0.00 0.00 0.00 72 968.4
20260504021720 6 296 0.0 0.0 0.00 0.00 0.00 71 968.4
20260504021215 6 296 0.0 0.0 0.00 0.00 0.00 70 968.4
20260504020708 6 296 0.0 0.0 0.00 0.00 0.00 70 968.4
20260504020202 6 296 0.0 0.0 0.00 0.00 0.00 70 968.4
20260504015656 6 295 0.0 0.0 0.00 0.00 0.00 69 968.4
20260504015150 6 296 0.0 0.0 0.00 0.00 0.00 69 968.3
20260504014644 6 295 0.0 0.0 0.00 0.00 0.00 68 968.3
20260504014137 7 296 0.0 0.0 0.00 0.00 0.00 69 968.3
20260504013632 7 296 0.0 0.0 0.00 0.00 0.00 68 968.3
20260504013126 7 296 0.0 0.0 0.00 0.00 0.00 67 968.3
20260504012846 7 296 0.0 0.0 0.00 0.00 0.00 66 968.3
20260504012114 7 296 0.0 0.0 0.00 0.00 0.00 65 968.2
20260504011607 7 296 0.0 0.0 0.00 0.00 0.00 64 968.2
20260504011102 8 296 0.0 0.0 0.00 0.00 0.00 63 968.1
20260504010556 8 295 0.0 0.0 0.00 0.00 0.00 62 968.1
20260504010050 8 296 0.0 0.0 0.00 0.00 0.00 62 968.1
20260504005544 8 295 0.0 0.0 0.00 0.00 0.00 60 968.1
20260504005038 9 296 0.0 0.0 0.00 0.00 0.00 59 968.1
20260504004532 9 295 0.0 0.0 0.00 0.00 0.00 58 968.1
20260504004246 10 296 0.0 0.0 0.00 0.00 0.00 57 968.0
20260504003520 10 296 0.0 0.0 0.00 0.00 0.00 57 968.0
20260504003014 10 296 0.0 0.0 0.00 0.00 0.00 53 967.9
20260504002508 11 296 0.0 0.0 0.00 0.00 0.00 51 967.9
20260504002002 11 296 0.0 0.0 0.00 0.00 0.00 51 967.9
20260504001455 11 295 0.0 0.0 0.00 0.00 0.00 49 967.8
20260504000950 12 296 0.0 4.8 0.00 0.00 0.00 47 967.8
20260504000444 12 296 0.0 4.8 0.00 0.00 0.00 46 967.8
20260503235937 12 207 1.6 12.9 0.00 0.00 0.00 45 967.8
20260503235432 12 212 1.6 12.9 0.00 0.00 0.00 45 967.7
20260503234926 12 260 0.0 4.8 0.00 0.00 0.00 45 967.7
20260503234420 13 297 0.0 4.8 0.00 0.00 0.00 44 967.8
20260503233914 13 293 1.6 9.7 0.00 0.00 0.00 43 967.8
20260503233408 13 219 1.6 9.7 0.00 0.00 0.00 42 967.7
20260503232901 14 297 1.6 12.9 0.00 0.00 0.00 42 967.7
20260503232618 14 232 1.6 12.9 0.00 0.00 0.00 40 967.7
20260503231850 14 225 1.6 9.7 0.00 0.00 0.00 40 967.6
20260503231344 15 325 1.6 4.8 0.00 0.00 0.00 40 967.6
20260503230844 14 217 1.6 8.0 0.00 0.00 0.00 41 967.6
20260503230344 14 270 3.2 14.5 0.00 0.00 0.00 41 967.6
20260503225844 14 303 3.2 14.5 0.00 0.00 0.00 41 967.6
20260503225341 14 215 3.2 16.1 0.00 0.00 0.00 40 967.6
20260503224841 14 302 3.2 16.1 0.00 0.00 0.00 40 967.6
20260503224342 14 279 1.6 9.7 0.00 0.00 0.00 41 967.6
20260503223841 14 316 1.6 14.5 0.00 0.00 0.00 41 967.6
20260503223607 13 242 1.6 14.5 0.00 0.00 0.00 42 967.6
20260503222842 13 282 1.6 12.9 0.00 0.00 0.00 43 967.6
20260503222342 13 288 1.6 9.7 0.00 0.00 0.00 44 967.6
20260503222105 13 290 1.6 11.3 0.00 0.00 0.00 43 967.6
20260503221608 13 235 3.2 11.3 0.00 0.00 0.00 43 967.7
20260503221058 14 297 4.8 19.3 0.00 0.00 0.00 41 967.6
20260503220339 14 296 3.2 19.3 0.00 0.00 0.00 41 967.7
20260503220100 13 283 3.2 12.9 0.00 0.00 0.00 42 967.7
20260503215336 13 292 3.2 12.9 0.00 0.00 0.00 40 967.7
20260503214838 14 304 3.2 12.9 0.00 0.00 0.00 40 967.7
20260503214338 15 320 3.2 12.9 0.00 0.00 0.00 40 967.7
20260503213836 14 234 3.2 11.3 0.00 0.00 0.00 41 967.7
20260503213335 13 204 3.2 11.3 0.00 0.00 0.00 41 967.7
20260503212834 13 302 1.6 11.3 0.00 0.00 0.00 42 967.6
20260503212333 14 57 1.6 11.3 0.00 0.00 0.00 41 967.6
20260503211832 14 234 3.2 11.3 0.00 0.00 0.00 41 967.6
20260503211332 14 226 3.2 11.3 0.00 0.00 0.00 43 967.6
20260503211057 14 299 3.2 11.3 0.00 0.00 0.00 42 967.6
20260503210331 13 312 3.2 11.3 0.00 0.00 0.00 41 967.7
20260503205831 13 292 1.6 14.5 0.00 0.00 0.00 42 967.6
20260503205329 13 298 3.2 16.1 0.00 0.00 0.00 40 967.7
20260503205053 13 302 4.8 16.1 0.00 0.00 0.00 41 967.7
20260503204329 13 293 4.8 17.7 0.00 0.00 0.00 40 967.7
20260503203829 14 320 3.2 17.7 0.00 0.00 0.00 40 967.8
20260503203328 14 283 4.8 14.5 0.00 0.00 0.00 40 967.7
20260503202826 14 292 4.8 14.5 0.00 0.00 0.00 38 967.8
20260503202551 14 296 4.8 20.9 0.00 0.00 0.00 39 967.8
20260503201825 14 225 3.2 20.9 0.00 0.00 0.00 40 967.9
20260503201817 14 207 3.2 16.1 0.00 0.00 0.00 39 967.9
20260503200825 15 232 3.2 16.1 0.00 0.00 0.00 39 968.0
20260503200325 15 187 3.2 14.5 0.00 0.00 0.00 38 967.9
20260503200048 15 331 3.2 11.3 0.00 0.00 0.00 42 967.9
20260503195324 14 214 3.2 11.3 0.00 0.00 0.00 43 968.0
20260503194825 14 317 4.8 14.5 0.00 0.00 0.00 44 968.1
20260503194324 13 322 4.8 14.5 0.00 0.00 0.00 40 968.2
20260503193824 14 238 3.2 14.5 0.00 0.00 0.00 39 968.2
20260503193813 14 236 3.2 11.3 0.00 0.00 0.00 40 968.3
20260503192826 14 273 3.2 9.7 0.00 0.00 0.00 41 968.3
20260503192543 13 207 4.8 12.9 0.00 0.00 0.00 41 968.3
20260503191825 14 235 4.8 14.5 0.00 0.00 0.00 39 968.4
20260503191324 14 10 3.2 14.5 0.00 0.00 0.00 44 968.4
20260503190825 13 35 3.2 11.3 0.00 0.00 0.00 42 968.3
20260503190326 13 291 4.8 14.5 0.00 0.00 0.00 41 968.6
20260503185824 14 345 4.8 14.5 0.00 0.00 0.00 42 968.6
20260503185324 14 55 4.8 14.5 0.00 0.00 0.00 42 968.7
20260503184824 13 298 3.2 14.5 0.00 0.00 0.00 43 968.7
20260503184324 13 229 4.8 14.5 0.00 0.00 0.00 43 968.7
20260503183825 13 323 3.2 12.9 0.00 0.00 0.00 43 968.8
20260503183325 13 300 3.2 11.3 0.00 0.00 0.00 42 968.8
20260503182824 13 295 4.8 14.5 0.00 0.00 0.00 48 968.9
20260503182322 13 281 4.8 16.1 0.00 0.00 0.00 47 968.9
20260503181823 13 24 4.8 16.1 0.00 0.00 0.00 42 969.0
20260503181324 13 317 3.2 12.9 0.00 0.00 0.00 43 968.9
20260503180823 13 292 4.8 20.9 0.00 0.00 0.00 45 968.9
20260503180324 13 59 6.4 27.4 0.00 0.00 0.00 40 968.9
20260503175820 13 325 4.8 27.4 0.00 0.00 0.00 43 969.0
20260503175322 13 298 4.8 17.7 0.00 0.00 0.00 47 969.1
20260503174820 13 280 4.8 16.1 0.00 0.00 0.00 45 969.1
20260503174759 13 334 3.2 16.1 0.00 0.00 0.00 48 969.2
20260503173818 12 40 1.6 8.0 0.00 0.00 0.00 47 969.2
20260503173318 12 234 3.2 16.1 0.00 0.00 0.00 47 969.2
20260503172813 12 342 4.8 16.1 0.00 0.00 0.00 43 969.2
20260503172758 13 288 4.8 19.3 0.00 0.00 0.00 45 969.3
20260503171807 12 150 4.8 19.3 0.00 0.00 0.00 45 969.2
20260503171307 12 23 4.8 19.3 0.00 0.00 0.00 46 969.2
20260503171029 12 232 4.8 19.3 0.00 0.00 0.00 44 969.4
20260503170305 12 81 3.2 16.1 0.00 0.00 0.00 46 969.3
20260503150707 9 63 3.2 17.7 0.00 0.00 0.00 53 970.5
20260503150202 9 234 4.8 17.7 0.00 0.00 0.00 54 970.4
20260503130949 6 299 1.6 11.3 0.00 0.00 0.00 67 970.8
20260503130444 6 36 1.6 9.7 0.00 0.00 0.00 69 970.9
20260503110331 1 277 0.0 0.0 0.00 0.00 0.00 83 970.2
20260503081306 2 42 0.0 4.8 0.00 0.00 0.00 76 969.1
20260503080803 2 282 0.0 0.0 0.00 0.00 0.00 76 969.1
20260503080302 2 89 0.0 6.4 0.00 0.00 0.00 76 969.0
20260503072251 2 38 1.6 9.7 0.00 0.00 0.00 75 968.9
20260503071751 3 351 1.6 9.7 0.00 0.00 0.00 74 968.9
20260503071246 2 46 0.0 6.4 0.00 0.00 0.00 75 968.9
20260503071005 3 26 0.0 6.4 0.00 0.00 0.00 74 968.9
20260503070455 2 327 0.0 4.8 0.00 0.00 0.00 75 968.9
20260503070335 3 49 1.6 6.4 0.00 0.00 0.00 74 968.9
20260503055004 3 32 0.0 4.8 0.00 0.00 0.00 72 968.9
20260503054223 3 306 0.0 4.8 0.00 0.00 0.00 72 969.0
20260503053716 3 344 0.0 0.0 0.00 0.00 0.00 72 968.9
20260503053210 3 286 0.0 0.0 0.00 0.00 0.00 72 969.0
20260503052920 3 283 0.0 0.0 0.00 0.03 0.00 71 969.0
20260503052416 3 273 0.0 0.0 0.00 0.03 0.00 71 969.0
20260503051652 3 267 0.0 0.0 0.00 0.05 0.00 72 969.0
20260503051145 4 265 0.0 0.0 0.00 0.05 0.00 73 969.1
20260503050640 4 265 0.0 0.0 0.00 0.08 0.00 73 969.1
20260503050134 4 265 0.0 0.0 0.00 0.08 0.00 72 969.2
20260503045628 4 268 0.0 0.0 0.00 0.08 0.00 73 969.1
20260503045121 4 265 0.0 0.0 0.00 0.08 0.00 73 969.2
20260503044837 4 265 0.0 0.0 0.00 0.08 0.00 75 969.2
20260503044330 4 265 0.0 0.0 0.00 0.08 0.00 74 969.2
20260503043604 4 265 0.0 0.0 0.00 0.08 0.00 75 969.1
20260503043058 4 265 0.0 6.4 0.00 0.08 0.00 73 969.2
20260503042552 4 252 0.0 6.4 0.00 0.08 0.00 71 969.2